Wind_Speed
25 19 11 16 29 34 41 43 34 44 36 34 26 24 22 22 25 27 27 27 26 26 23 22 24 30 32 32 30 32 30 29 30 29 28 30 33 35 36 37 38 38 38 38
23 22 20 21 26 30 32 37 41 41 43 31 25 26 27 26 26 28 28 28 26 27 25 29 36 33 36 35 34 32 29 28 29 30 31 32 33 34 37 39 40 40 38 35
16 19 20 26 36 31 33 34 34 40 42 30 29 29 30 27 24 29 28 26 27 26 33 39 37 35 38 37 33 31 28 29 29 30 30 30 33 35 36 37 37 39 39 37
15 9 7 35 29 29 37 40 37 36 39 34 30 29 30 31 30 31 29 28 28 34 43 40 35 36 36 33 31 28 27 28 28 27 28 30 32 34 36 37 37 35 34 33
16 19 22 17 25 25 28 35 31 33 36 35 32 30 33 28 29 28 29 31 39 44 40 34 35 35 32 29 29 27 28 28 28 30 32 33 34 34 34 31 31 31 31 29
16 10 13 38 32 21 18 32 24 27 31 30 28 32 34 28 29 35 34 39 45 31 33 31 31 31 29 29 28 28 28 29 31 33 34 34 34 32 31 32 30 30 31 30
30 19 18 19 19 19 19 20 15 20 20 24 25 24 28 29 29 30 30 37 37 32 26 28 31 32 29 29 28 28 28 30 31 32 32 32 32 31 30 29 28 29 28 28
31 16 12 29 24 25 22 22 26 28 26 28 18 28 33 31 27 27 30 28 24 27 31 32 29 29 28 27 27 27 28 29 31 33 34 35 34 32 30 28 28 28 27 26
26 27 29 23 24 21 32 24 31 29 30 28 20 22 21 24 26 25 23 23 25 27 28 27 29 30 26 23 25 28 30 31 31 32 34 34 33 30 28 28 27 26 26 26
17 25 31 29 34 31 33 27 29 29 27 22 23 20 20 19 18 19 22 25 26 25 25 25 25 24 26 27 28 29 29 29 29 31 32 31 32 30 26 26 26 26 25 25
27 21 22 27 32 33 34 29 25 22 21 20 19 21 20 22 24 25 25 25 26 26 26 28 29 31 32 32 30 31 34 30 29 31 32 32 29 26 25 24 24 23 22 21
23 23 28 23 33 34 29 25 24 21 23 23 23 26 27 24 24 25 27 27 28 28 32 34 36 36 35 36 34 32 35 34 34 36 33 27 22 23 22 22 21 20 18 16
26 19 18 26 23 21 20 20 21 23 24 27 29 25 24 24 26 27 29 32 34 36 37 37 39 40 41 38 36 37 38 35 38 38 29 26 24 22 21 19 18 16 13 11
23 21 16 16 17 18 20 22 25 25 28 27 27 28 29 31 33 35 36 36 37 38 36 36 37 38 37 36 42 39 37 35 40 31 26 24 21 20 18 17 15 12 9 7
18 19 18 20 20 19 20 23 26 27 28 29 29 29 29 29 30 29 30 29 29 34 35 34 37 39 37 37 36 34 34 34 31 26 23 21 19 18 16 14 12 10 8 7
19 18 19 20 20 21 21 21 22 23 25 25 24 23 22 20 22 24 25 27 28 28 28 25 24 22 24 28 29 30 30 28 24 21 19 19 17 16 14 12 9 8 7 7
18 18 18 17 17 17 17 18 18 18 19 18 16 17 18 18 18 20 24 23 21 23 21 21 19 19 22 24 27 30 25 21 19 19 17 16 15 13 11 9 8 7 7 7
15 14 13 14 14 15 16 16 15 14 14 14 15 13 11 10 11 12 16 18 18 18 16 17 16 20 23 24 23 18 17 18 17 15 14 13 13 12 10 8 7 7 7 7
14 13 12 13 14 15 14 13 13 12 10 11 8 6 10 11 8 10 9 10 12 13 14 14 14 15 15 14 14 16 17 16 14 13 13 13 12 10 8 8 8 7 7 6
15 13 11 10 11 11 10 10 10 10 5 5 7 9 8 7 7 6 5 4 7 9 10 11 12 13 15 16 17 15 13 13 13 13 13 12 10 9 8 8 8 7 7 7
13 11 12 12 11 10 11 10 10 10 9 8 8 7 7 6 6 7 6 6 7 10 11 13 14 15 14 12 12 12 12 12 12 13 12 11 9 9 9 9 8 8 8 7
12 10 12 12 13 12 11 12 13 14 13 12 12 10 8 8 7 8 10 10 12 13 13 14 12 11 11 11 11 12 12 12 12 12 11 10 9 9 9 10 9 8 8 7
10 10 10 12 13 13 13 13 14 15 15 15 14 12 10 10 11 11 11 11 14 13 11 10 9 10 10 11 11 11 11 12 12 11 10 10 10 10 10 10 9 9 8 8
9 10 10 10 11 12 13 13 14 15 15 14 13 12 12 12 13 13 11 10 9 10 10 10 9 9 10 10 11 11 11 11 11 10 10 10 11 10 11 11 10 9 9 9
11 10 10 9 9 9 9 10 11 12 14 14 14 14 14 13 13 12 11 10 10 10 10 10 10 10 10 11 12 12 12 11 10 10 10 11 11 11 12 12 11 10 10 9
12 11 11 11 11 11 10 10 10 10 11 12 13 14 15 15 14 13 13 12 13 13 12 11 11 11 11 11 12 12 12 10 9 9 10 11 12 12 13 12 11 11 10 10
11 12 12 11 10 9 9 9 9 9 10 11 12 14 15 16 16 15 14 14 14 14 14 13 13 12 12 12 12 13 12 11 9 10 11 12 12 13 13 13 13 13 11 11
Wind_Direction
206 216 215 217 220 219 221 229 228 246 246 247 249 260 250 241 237 232 229 233 243 230 230 231 239 262 258 262 277 286 287 288 283 280 275 271 272 273 275 277 279 280 285 282
219 231 237 234 230 225 229 234 239 248 253 253 256 257 259 247 239 234 235 247 236 232 227 229 247 265 261 269 279 285 280 280 278 274 272 271 271 271 274 279 281 287 294 300
235 240 241 243 231 228 234 237 236 241 251 263 259 257 256 254 247 242 244 243 237 231 230 247 262 258 264 271 278 279 279 279 276 271 269 271 272 273 276 284 291 293 295 289
240 213 215 247 239 238 240 246 245 250 255 258 259 262 260 261 253 248 245 238 232 229 239 258 258 260 268 275 277 276 278 275 272 272 273 274 276 280 286 289 292 288 286 285
207 209 244 259 245 231 231 244 246 249 253 262 264 265 262 255 252 246 244 232 227 236 250 255 261 267 272 271 272 273 272 271 273 275 279 283 288 291 293 291 288 286 286 288
196 213 226 255 244 239 229 250 249 245 254 257 258 260 258 257 248 237 229 226 240 256 260 258 268 270 269 271 274 273 273 274 274 277 282 286 288 288 290 291 289 287 287 288
214 230 238 226 234 225 205 250 249 240 248 251 248 253 249 249 246 246 247 241 252 265 267 266 271 270 270 274 275 276 276 279 283 284 285 287 289 289 290 288 288 289 290 287
215 231 235 227 231 230 249 260 256 253 252 248 248 245 247 242 239 253 260 265 262 258 260 265 264 271 275 277 279 280 283 286 286 285 287 289 289 289 287 286 288 291 290 289
202 224 240 235 240 248 250 239 250 250 252 262 243 244 242 239 241 252 254 250 250 254 260 268 273 272 267 271 282 283 283 285 288 288 288 290 293 291 283 282 284 285 288 288
224 233 235 237 242 234 254 248 245 254 251 246 245 252 250 247 247 254 258 263 267 270 270 267 263 260 266 278 286 287 288 288 288 289 292 296 292 286 285 286 285 286 286 284
219 227 223 227 237 239 241 238 240 247 252 247 248 245 243 258 268 268 266 266 269 271 265 261 259 262 265 274 279 282 287 289 291 296 297 295 288 282 280 281 284 284 282 281
218 223 238 246 239 236 235 237 247 247 240 246 250 261 265 266 263 261 261 264 265 260 258 257 263 263 265 271 270 274 280 286 295 300 296 288 282 278 278 283 284 281 279 274
222 217 218 224 233 223 222 234 242 244 248 255 265 263 265 258 256 257 260 264 259 255 260 264 265 265 266 263 264 270 274 282 292 298 286 276 276 275 278 279 280 277 263 265
214 215 217 216 225 227 232 240 247 248 252 259 261 263 262 260 259 260 258 258 261 265 263 263 267 268 266 266 270 270 272 289 296 287 274 271 272 272 272 274 271 255 247 245
212 217 217 228 235 241 243 248 254 260 261 262 263 263 263 265 267 266 266 266 264 265 270 271 266 266 268 271 279 278 285 286 282 271 266 270 266 265 267 264 247 234 231 243
217 224 233 240 243 247 249 251 254 258 260 262 264 266 268 269 269 268 266 266 269 272 273 275 274 266 264 267 272 276 278 275 264 266 268 263 259 259 254 238 226 223 233 256
225 229 232 233 235 241 250 254 254 254 258 259 258 261 269 273 275 273 269 274 271 270 275 276 260 259 268 272 276 280 263 264 264 263 259 251 251 245 227 216 218 229 247 266
221 227 231 236 241 248 244 242 247 244 245 250 260 262 258 271 283 279 278 268 269 265 260 250 247 259 273 282 277 266 267 265 259 248 240 242 236 221 212 214 228 241 256 265
216 222 239 242 247 234 225 225 225 229 244 245 232 239 266 268 282 315 296 255 245 244 247 254 263 268 268 259 262 266 262 251 236 230 230 226 221 213 215 224 238 248 256 267
217 227 232 235 202 201 218 206 211 197 207 211 241 258 265 263 270 291 293 278 253 229 231 248 251 258 266 267 265 257 240 230 224 220 217 216 213 215 222 230 237 245 252 261
215 222 214 207 212 206 199 206 212 227 234 252 266 272 264 261 253 256 257 255 240 246 253 259 265 268 264 252 243 233 226 223 221 219 214 209 207 220 228 231 234 239 245 257
206 208 206 210 216 219 222 229 235 241 249 260 275 274 266 250 247 245 242 244 251 253 258 261 259 251 240 235 230 227 222 219 218 216 213 214 215 222 231 232 232 238 250 259
200 205 211 214 216 220 225 228 231 235 242 252 263 266 269 255 248 254 264 268 258 253 247 238 236 236 234 230 225 222 221 217 217 218 220 224 225 225 229 233 234 241 250 258
206 210 213 217 220 224 226 231 236 238 240 245 251 254 258 258 255 260 269 272 256 236 229 229 226 226 230 230 227 223 219 218 220 223 227 231 232 228 229 233 236 242 251 257
212 214 220 223 228 235 237 238 244 245 246 253 256 264 263 256 254 258 262 255 243 233 229 231 231 228 229 230 229 224 218 219 226 235 237 237 235 231 231 233 237 244 249 254
211 216 220 222 225 227 230 235 241 249 257 263 264 262 258 259 262 263 260 252 243 236 231 233 235 232 230 229 228 224 222 225 234 242 243 240 237 233 232 235 240 243 248 255
210 212 216 218 221 227 236 244 250 257 265 269 268 263 259 258 260 261 255 249 242 237 235 236 236 235 233 233 229 226 228 232 242 246 243 240 238 236 234 237 242 245 248 254
Height
3043 3047 3050 3053 3057 3060 3060 3059 3066 3056 3064 3065 3070 3069 3070 3072 3074 3076 3077 3076 3077 3077 3078 3078 3076 3075 3075 3074 3076 3075 3074 3073 3071 3071 3070 3070 3070 3070 3068 3067 3066 3063 3062 3058
3038 3042 3045 3048 3048 3051 3055 3057 3057 3057 3053 3061 3065 3066 3068 3064 3066 3067 3067 3068 3069 3069 3072 3070 3066 3067 3068 3068 3067 3066 3065 3064 3063 3063 3062 3062 3061 3060 3060 3059 3058 3054 3052 3049
3031 3037 3041 3041 3036 3045 3047 3048 3051 3049 3045 3054 3056 3058 3060 3059 3060 3060 3060 3062 3064 3064 3060 3057 3057 3058 3059 3059 3058 3057 3057 3056 3055 3055 3053 3053 3053 3052 3050 3048 3048 3047 3044 3040
3028 3030 3033 3021 3032 3037 3039 3040 3043 3044 3043 3046 3048 3050 3051 3052 3051 3052 3053 3054 3055 3052 3047 3049 3051 3051 3051 3050 3050 3049 3048 3047 3047 3046 3046 3046 3045 3045 3043 3041 3038 3038 3034 3030
3020 3024 3024 3022 3024 3026 3029 3028 3033 3036 3036 3038 3040 3042 3038 3044 3041 3044 3044 3044 3040 3039 3040 3042 3043 3042 3042 3042 3041 3040 3039 3039 3039 3039 3039 3039 3038 3036 3033 3031 3030 3030 3026 3022
3013 3017 3015 3009 3019 3021 3023 3018 3025 3026 3026 3030 3032 3030 3030 3033 3031 3029 3032 3030 3029 3034 3033 3032 3034 3035 3035 3034 3033 3032 3032 3032 3032 3031 3030 3030 3029 3026 3025 3023 3022 3020 3018 3014
3002 3009 3007 3009 3008 3013 3016 3015 3014 3016 3018 3021 3022 3024 3019 3018 3020 3022 3023 3024 3023 3023 3025 3028 3028 3028 3027 3027 3026 3026 3025 3025 3024 3023 3022 3021 3020 3019 3017 3015 3013 3012 3009 3005
2994 2999 2995 3000 3003 3003 3006 3003 3004 3007 3009 3011 3012 3008 3008 3010 3012 3015 3015 3017 3017 3018 3020 3020 3020 3020 3019 3019 3019 3018 3018 3018 3017 3016 3014 3013 3011 3010 3008 3007 3005 3002 3000 2997
2980 2981 2987 2991 2994 2993 2994 2997 2996 2999 3000 3002 3004 3002 3003 3004 3006 3009 3011 3012 3013 3013 3012 3012 3013 3012 3011 3012 3013 3012 3011 3009 3009 3008 3006 3004 3003 3001 3000 2998 2995 2993 2991 2989
2974 2974 2978 2981 2982 2985 2986 2988 2989 2990 2991 2995 2996 2997 2998 2999 3001 3004 3006 3007 3007 3006 3005 3006 3006 3006 3004 3006 3006 3006 3004 3002 3001 3000 2998 2995 2994 2994 2991 2989 2987 2985 2983 2981
2964 2969 2970 2972 2974 2976 2978 2981 2983 2985 2986 2989 2991 2992 2994 2994 2995 2996 2998 2999 2999 2999 3000 3000 3000 2999 2997 2998 2998 2998 2996 2995 2993 2991 2989 2987 2986 2985 2984 2982 2980 2978 2977 2975
2957 2960 2961 2963 2964 2968 2971 2974 2976 2979 2981 2984 2987 2987 2988 2988 2989 2990 2990 2991 2992 2993 2993 2993 2991 2991 2990 2991 2990 2989 2988 2986 2986 2984 2981 2980 2978 2978 2978 2975 2973 2972 2971 2970
2948 2951 2953 2956 2960 2963 2966 2968 2971 2973 2975 2978 2978 2979 2979 2981 2982 2982 2983 2983 2983 2984 2983 2985 2983 2983 2982 2981 2981 2980 2979 2979 2978 2977 2974 2974 2973 2972 2971 2969 2968 2967 2967 2966
2941 2945 2948 2952 2955 2957 2961 2963 2964 2967 2969 2970 2970 2971 2972 2973 2973 2973 2973 2974 2973 2973 2974 2974 2974 2974 2972 2971 2971 2971 2971 2971 2970 2969 2969 2968 2966 2966 2966 2964 2964 2964 2963 2963
2939 2941 2944 2947 2950 2952 2954 2956 2957 2959 2960 2960 2961 2961 2962 2963 2962 2963 2963 2963 2964 2962 2962 2965 2965 2964 2964 2964 2963 2963 2963 2963 2962 2962 2961 2962 2961 2961 2960 2960 2960 2960 2960 2960
2934 2937 2939 2941 2944 2945 2947 2948 2949 2951 2951 2951 2952 2952 2953 2954 2954 2954 2954 2953 2953 2954 2953 2954 2954 2955 2955 2956 2956 2956 2955 2955 2955 2955 2955 2956 2956 2956 2956 2956 2956 2957 2957 2958
2928 2931 2933 2935 2937 2939 2940 2941 2941 2942 2943 2945 2945 2946 2947 2947 2947 2946 2945 2945 2946 2946 2946 2946 2947 2949 2950 2950 2949 2948 2948 2948 2949 2950 2950 2951 2952 2952 2952 2953 2953 2954 2955 2956
2922 2924 2927 2929 2931 2932 2933 2934 2935 2937 2938 2939 2940 2941 2941 2942 2941 2940 2939 2939 2939 2940 2941 2943 2943 2944 2944 2943 2943 2943 2943 2944 2945 2945 2946 2948 2949 2949 2949 2950 2951 2952 2953 2953
2918 2921 2922 2924 2925 2926 2928 2929 2930 2932 2933 2934 2936 2937 2937 2937 2937 2935 2933 2933 2934 2936 2938 2938 2939 2939 2939 2939 2939 2939 2939 2940 2941 2942 2943 2945 2946 2946 2946 2948 2949 2950 2950 2950
2915 2916 2918 2919 2920 2922 2923 2925 2927 2930 2931 2932 2933 2934 2933 2934 2933 2933 2932 2931 2932 2933 2934 2935 2935 2936 2936 2936 2936 2936 2936 2937 2939 2940 2941 2942 2943 2943 2944 2946 2947 2947 2947 2947
2910 2912 2914 2915 2917 2919 2921 2923 2925 2927 2929 2931 2931 2930 2930 2930 2930 2931 2931 2931 2932 2932 2932 2932 2933 2932 2932 2932 2933 2933 2934 2935 2937 2938 2939 2939 2940 2941 2943 2944 2945 2945 2945 2945
2906 2908 2910 2912 2915 2916 2918 2920 2922 2925 2926 2927 2927 2927 2927 2928 2928 2929 2929 2929 2929 2929 2929 2929 2929 2929 2929 2930 2931 2932 2932 2933 2935 2936 2937 2937 2938 2939 2941 2942 2942 2943 2943 2943
2904 2905 2907 2909 2911 2913 2915 2917 2919 2921 2922 2923 2923 2923 2923 2924 2925 2926 2925 2925 2924 2925 2924 2925 2926 2927 2927 2928 2928 2929 2931 2931 2932 2933 2934 2935 2936 2937 2938 2939 2940 2940 2941 2941
2900 2903 2905 2906 2908 2909 2911 2912 2914 2916 2917 2918 2918 2919 2919 2920 2921 2921 2921 2920 2920 2920 2921 2922 2923 2924 2925 2926 2926 2927 2928 2929 2930 2931 2932 2933 2933 2934 2935 2937 2937 2938 2938 2939
2899 2900 2902 2903 2905 2906 2907 2909 2910 2911 2913 2913 2914 2914 2915 2916 2917 2917 2917 2917 2917 2918 2918 2919 2920 2921 2922 2923 2924 2924 2925 2926 2927 2928 2929 2930 2931 2931 2933 2934 2934 2935 2936 2936
2896 2898 2899 2901 2902 2904 2905 2906 2907 2908 2908 2909 2909 2909 2910 2911 2912 2912 2913 2913 2914 2914 2915 2916 2917 2918 2918 2919 2920 2921 2922 2923 2924 2925 2926 2927 2927 2929 2930 2931 2931 2932 2933 2933
2893 2895 2897 2898 2899 2900 2901 2902 2903 2904 2904 2904 2904 2905 2905 2906 2907 2907 2908 2909 2909 2910 2911 2912 2913 2914 2915 2916 2917 2918 2919 2920 2921 2921 2922 2923 2924 2925 2926 2927 2928 2929 2930 2930